#timestamp,LO_Frequency,Hit,StdDev 
1513530015.3,286046996.0,N
1513530035.1,286046993.8,Y
1513530055.9,286046996.7,P
1513530075.7,286046995.4,P
1513530095.5,286046999.6,N
1513530115.4,286046995.3,Y
1513530135.2,286046998.2,P
1513530155.1,286046999.4,N
1513530156.0,286046999.4,N
1513530175.8,286046999.3,N
1513530195.6,286047001.9,N
1513530215.5,286047002.4,N
1513530235.3,286046997.6,N
1513530255.1,286046995.4,N
1513530275.9,286046996.5,N
1513530295.7,286046995.2,N
1513530315.6,286046994.8,N
1513530335.4,286046992.9,N
1513530355.2,286046990.5,Y
1513530375.1,286046994.4,P
1513530376.0,286046994.4,P
1513530395.8,286046996.2,N
1513530415.7,286046994.9,Y
1513530435.5,286046998.9,P
1513530455.3,286046998.6,N
1513530475.2,286046999.6,N
1513530495.0,286046997.4,N
1513530495.9,286046997.4,N
1513530515.7,286046999.1,N
1513530535.6,286047002.8,N
1513530555.4,286047001.6,N
1513530575.3,286047009.0,Y
1513530595.1,286047008.5,P
1513530615.8,286047009.5,N
1513530635.7,286047006.7,N
1513530655.5,286047007.2,N
1513530675.4,286047007.1,N
1513530695.2,286047004.9,N
1513530715.0,286047008.7,N
1513530715.9,286047008.7,N
1513530765.8,286047008.4,E
1513530775.7,286047004.5,N
1513530795.6,286046998.5,P
1513530815.4,286046997.7,N
1513530835.2,286046998.6,N
1513530855.1,286047000.7,N
1513530856.0,286047000.7,N
1513530875.8,286046998.9,N
1513530895.7,286046996.6,N
1513530915.5,286046996.9,N
1513530935.3,286046996.6,N
1513530955.2,286046996.9,N
1513530975.0,286046997.8,N
1513530975.9,286046997.8,N
1513530995.7,286046995.4,N
1513531015.6,286046995.0,N
1513531035.4,286046997.5,N
1513531055.3,286046998.4,N
1513531075.1,286046997.1,N
1513531076.0,286046997.1,N
1513531095.8,286046999.2,N
1513531115.7,286047000.2,N
1513531135.5,286047001.6,N
1513531155.3,286047003.1,N
1513531175.2,286047003.6,N
1513531195.0,286047003.9,N
1513531195.9,286047003.9,N
1513531215.8,286047003.8,N
1513531235.6,286047000.1,N
1513531255.4,286047001.8,N
1513531275.3,286047004.9,N
1513531295.1,286047005.6,N
1513531315.9,286047002.6,N
1513531335.7,286047004.3,N
1513531355.5,286047000.9,N
1513531375.4,286047000.1,N
1513531395.2,286046999.4,N
1513531415.0,286047001.1,N
1513531415.9,286047001.1,N
1513531435.8,286047000.0,N
1513531455.6,286046998.6,N
1513531475.5,286047000.6,N
1513531495.3,286047002.5,N
1513531515.1,286047001.6,N
1513531535.9,286046998.4,N
1513531555.7,286046996.6,N
1513531575.5,286046998.8,N
1513531595.4,286046996.6,N
1513531615.2,286046997.6,N
1513531635.1,286046998.8,N
1513531636.0,286046998.8,N
1513531655.8,286047001.0,N
1513531675.6,286046997.4,N
1513531695.5,286047000.8,N
1513531715.3,286047001.8,N
1513531735.2,286047005.5,N
1513531755.9,286047001.9,N
1513531775.7,286047000.6,N
1513531795.6,286047001.6,N
1513531815.4,286047000.4,N
1513531835.2,286047001.4,N
1513531855.1,286047006.0,N
1513531856.0,286047006.0,N
1513531875.8,286047000.5,N
1513531895.7,286046997.2,N
1513531915.5,286046997.7,N
1513531935.3,286046996.6,N
1513531955.2,286047000.1,N
1513531975.0,286046998.3,N
1513531975.9,286046998.3,N
1513531995.8,286046999.3,N
1513532015.6,286046997.0,N
1513532035.4,286046996.5,N
1513532055.3,286047000.8,N
1513532075.1,286047004.4,N
1513532095.8,286047002.2,N
1513532115.7,286047004.0,N
1513532135.5,286047004.4,N
1513532155.4,286047001.3,N
1513532175.2,286047000.6,N
1513532195.0,286046996.6,N
1513532195.9,286046996.6,N
1513532215.8,286046999.7,N
1513532235.6,286047002.2,N
1513532255.5,286046998.1,N
1513532275.3,286046998.8,N
1513532295.1,286046995.3,N
1513532315.9,286046999.6,N
1513532335.7,286047001.1,N
1513532355.5,286046996.1,N
1513532375.4,286046997.6,N
1513532395.2,286046995.1,N
1513532415.1,286046995.5,N
1513532416.0,286046995.5,N
1513532435.8,286046995.8,N
1513532455.6,286046996.4,N
1513532475.5,286047011.9,Y
1513532495.3,286046996.8,P
1513532515.2,286046997.8,N
1513532535.9,286046997.3,P
1513532555.7,286046995.1,Y
1513532575.6,286047000.6,P
1513532595.4,286047000.6,N
1513532615.2,286047001.8,N
1513532635.1,286047001.7,N
1513532636.0,286047001.7,N
1513532655.8,286047000.4,N
1513532675.7,286047003.9,N
1513532695.5,286047002.9,N
1513532715.3,286047002.2,N
1513532735.2,286047001.1,N
1513532755.0,286046996.7,N
1513532755.9,286046996.7,N
1513532775.8,286046998.6,N
1513532795.6,286046994.1,N
1513532815.4,286046995.6,N
1513532835.3,286046994.7,N
1513532855.1,286046997.0,N
1513532875.9,286046996.7,N
1513532895.7,286046996.7,N
1513532915.5,286047001.2,N
1513532935.4,286047000.0,N
1513532955.2,286046999.8,N
1513532975.0,286047001.8,N
1513532975.9,286047001.8,N
1513532995.8,286047002.8,N
1513533015.6,286047004.1,N
1513533035.5,286047001.8,N
1513533055.3,286047001.6,N
1513533075.1,286047001.9,N
1513533095.9,286047003.2,N
1513533115.7,286047002.9,N
1513533135.5,286047006.2,N
1513533155.4,286047005.0,N
1513533175.2,286047007.4,N
1513533195.1,286047005.1,N
1513533196.0,286047005.1,N
1513533215.8,286047004.1,N
1513533235.6,286046999.9,N
1513533255.5,286046999.8,N
1513533275.3,286047001.6,N
1513533295.2,286047007.6,N
1513533315.9,286047006.0,N
1513533335.7,286047003.4,N
1513533355.6,286047005.5,N
1513533375.4,286047009.1,N
1513533395.2,286047003.1,N
1513533415.1,286047006.6,N
1513533416.0,286047006.6,N
1513533435.8,286047008.7,Y
1513533455.7,286047003.3,P
1513533475.5,286047002.4,P
1513533495.3,286047000.6,N
1513533515.2,286047001.3,N
1513533535.0,286047000.9,N
1513533535.9,286047000.9,N
1513533555.8,286047000.7,N
1513533575.6,286046998.4,N
1513533595.4,286047002.4,N
